• In United Kingdom
  • List of Countries
  • For 7 days
  • Water Temperature
  • Satellite Maps
  • Weather Map
  • Weather Widgets
  • user-avatar
    Login

    Hourly Weather Hamulka

    Today, 26 September, Wednesday

    Time Temperature Precipitation Wind Pressure Humidity
    00:00 +3°C° 0 mm 3 mps 760 mmHg 81%
    01:00 +3°C° 0 mm 3 mps 760 mmHg 83%
    02:00 +3°C° 0 mm 3 mps 760 mmHg 87%
    03:00 +3°C° 0 mm 3 mps 760 mmHg 84%
    04:00 +2°C° 0 mm 3 mps 760 mmHg 82%
    05:00 +2°C° 0 mm 3 mps 760 mmHg 79%
    06:00 +3°C° 0 mm 4 mps 760 mmHg 74%
    07:00 +4°C° 0 mm 4 mps 760 mmHg 70%
    08:00 +5°C° 0 mm 5 mps 760 mmHg 65%
    09:00 +6°C° 0 mm 5 mps 759 mmHg 62%
    10:00 +8°C° 0 mm 6 mps 759 mmHg 59%
    11:00 +10°C° 0 mm 7 mps 759 mmHg 55%
    12:00 +10°C° 0 mm 7 mps 758 mmHg 54%
    13:00 +10°C° 0 mm 7 mps 758 mmHg 53%
    14:00 +10°C° 0 mm 7 mps 757 mmHg 52%
    15:00 +9°C° 0.2 mm 7 mps 756 mmHg 57%
    16:00 +9°C° 0.2 mm 7 mps 756 mmHg 63%
    17:00 +8°C° 0.2 mm 7 mps 755 mmHg 68%
    18:00 +6°C° 0.5 mm 8 mps 754 mmHg 73%
    19:00 +5°C° 0.5 mm 8 mps 754 mmHg 78%
    20:00 +5°C° 0.5 mm 8 mps 753 mmHg 84%
    21:00 +5°C° 0.9 mm 8 mps 753 mmHg 83%
    22:00 +5°C° 0.9 mm 8 mps 752 mmHg 83%
    23:00 +6°C° 0.9 mm 8 mps 751 mmHg 83%

    Tomorrow, 27 September, Thursday

    Time Temperature Precipitation Wind Pressure Humidity
    00:00 +6°C° 0.2 mm 8 mps 751 mmHg 83%
    01:00 +7°C° 0.2 mm 8 mps 750 mmHg 82%
    02:00 +7°C° 0.2 mm 8 mps 749 mmHg 82%
    03:00 +9°C° 0.2 mm 8 mps 749 mmHg 84%
    04:00 +10°C° 0.2 mm 7 mps 749 mmHg 86%
    05:00 +10°C° 0.2 mm 7 mps 749 mmHg 87%
    06:00 +11°C° 0.3 mm 7 mps 749 mmHg 88%
    07:00 +11°C° 0.3 mm 6 mps 749 mmHg 89%
    08:00 +13°C° 0.3 mm 6 mps 749 mmHg 90%
    09:00 +14°C° 0.1 mm 6 mps 750 mmHg 83%
    10:00 +14°C° 0.1 mm 7 mps 750 mmHg 77%
    11:00 +15°C° 0.1 mm 7 mps 750 mmHg 71%
    12:00 +16°C° 0 mm 7 mps 750 mmHg 67%
    13:00 +16°C° 0 mm 7 mps 751 mmHg 64%
    14:00 +17°C° 0 mm 7 mps 751 mmHg 60%
    15:00 +16°C° 0 mm 6 mps 751 mmHg 63%
    16:00 +16°C° 0 mm 6 mps 750 mmHg 66%
    17:00 +15°C° 0 mm 5 mps 750 mmHg 69%
    18:00 +14°C° 0 mm 5 mps 750 mmHg 75%
    19:00 +14°C° 0 mm 4 mps 750 mmHg 81%
    20:00 +13°C° 0 mm 4 mps 750 mmHg 86%
    21:00 +13°C° 0 mm 5 mps 750 mmHg 88%
    22:00 +13°C° 0 mm 5 mps 749 mmHg 89%
    23:00 +13°C° 0 mm 5 mps 749 mmHg 90%

    Day after tomorrow, 28 September, Friday

    Time Temperature Precipitation Wind Pressure Humidity
    00:00 +13°C° 0 mm 6 mps 748 mmHg 90%
    01:00 +13°C° 0 mm 6 mps 747 mmHg 89%
    02:00 +14°C° 0 mm 7 mps 747 mmHg 88%
    03:00 +14°C° 0.1 mm 7 mps 746 mmHg 88%
    04:00 +14°C° 0.1 mm 7 mps 745 mmHg 88%
    05:00 +14°C° 0.1 mm 7 mps 744 mmHg 88%
    06:00 +14°C° 0.4 mm 7 mps 744 mmHg 87%
    07:00 +14°C° 0.4 mm 7 mps 744 mmHg 85%
    08:00 +14°C° 0.4 mm 7 mps 744 mmHg 84%
    09:00 +12°C° 0.2 mm 7 mps 745 mmHg 80%
    10:00 +13°C° 0.2 mm 6 mps 745 mmHg 76%
    11:00 +13°C° 0.2 mm 6 mps 746 mmHg 72%
    12:00 +13°C° 0 mm 6 mps 746 mmHg 65%
    13:00 +14°C° 0 mm 6 mps 746 mmHg 59%
    14:00 +15°C° 0 mm 6 mps 747 mmHg 53%
    15:00 +14°C° 0 mm 5 mps 747 mmHg 56%
    16:00 +13°C° 0 mm 5 mps 747 mmHg 59%
    17:00 +13°C° 0 mm 4 mps 747 mmHg 62%
    18:00 +11°C° 0 mm 4 mps 748 mmHg 67%
    19:00 +10°C° 0 mm 3 mps 748 mmHg 73%
    20:00 +9°C° 0 mm 3 mps 749 mmHg 78%
    21:00 +8°C° 0 mm 3 mps 749 mmHg 79%
    22:00 +8°C° 0 mm 3 mps 750 mmHg 81%
    23:00 +7°C° 0 mm 3 mps 750 mmHg 82%

    29 September, Saturday

    Time Temperature Precipitation Wind Pressure Humidity
    00:00 +7°C° 0 mm 2 mps 750 mmHg 83%
    01:00 +6°C° 0 mm 2 mps 751 mmHg 84%
    02:00 +6°C° 0 mm 2 mps 751 mmHg 85%
    03:00 +5°C° 0 mm 2 mps 751 mmHg 85%
    04:00 +5°C° 0 mm 2 mps 751 mmHg 86%
    05:00 +5°C° 0 mm 2 mps 752 mmHg 87%
    06:00 +5°C° 0 mm 2 mps 752 mmHg 83%
    07:00 +5°C° 0 mm 3 mps 753 mmHg 79%
    08:00 +5°C° 0 mm 3 mps 753 mmHg 75%
    09:00 +7°C° 0 mm 4 mps 753 mmHg 68%
    10:00 +8°C° 0 mm 4 mps 754 mmHg 61%
    11:00 +11°C° 0 mm 4 mps 754 mmHg 54%
    12:00 +11°C° 0 mm 4 mps 755 mmHg 52%
    13:00 +12°C° 0 mm 4 mps 755 mmHg 49%
    14:00 +12°C° 0 mm 5 mps 755 mmHg 47%
    15:00 +12°C° 0 mm 4 mps 755 mmHg 49%
    16:00 +11°C° 0 mm 3 mps 755 mmHg 52%
    17:00 +11°C° 0 mm 3 mps 755 mmHg 55%
    18:00 +9°C° 0 mm 2 mps 756 mmHg 59%
    19:00 +8°C° 0 mm 2 mps 756 mmHg 64%
    20:00 +6°C° 0 mm 2 mps 757 mmHg 68%
    21:00 +6°C° 0 mm 2 mps 757 mmHg 69%
    22:00 +5°C° 0 mm 2 mps 757 mmHg 71%
    23:00 +6°C° 0 mm 1 mps 757 mmHg 72%

    30 September, Sunday

    Time Temperature Precipitation Wind Pressure Humidity
    00:00 +6°C° 0 mm 1 mps 757 mmHg 72%
    01:00 +5°C° 0 mm 1 mps 757 mmHg 72%
    02:00 +5°C° 0 mm 1 mps 757 mmHg 73%
    03:00 +5°C° 0 mm 1 mps 757 mmHg 73%
    04:00 +4°C° 0 mm 2 mps 757 mmHg 73%
    05:00 +4°C° 0 mm 2 mps 757 mmHg 74%
    06:00 +4°C° 0 mm 2 mps 757 mmHg 71%
    07:00 +4°C° 0 mm 3 mps 757 mmHg 69%
    08:00 +5°C° 0 mm 3 mps 757 mmHg 67%
    09:00 +8°C° 0 mm 3 mps 757 mmHg 61%
    10:00 +8°C° 0 mm 4 mps 757 mmHg 56%
    11:00 +11°C° 0 mm 4 mps 757 mmHg 50%
    12:00 +12°C° 0 mm 4 mps 756 mmHg 48%
    13:00 +13°C° 0 mm 4 mps 756 mmHg 46%
    14:00 +13°C° 0 mm 4 mps 755 mmHg 44%
    15:00 +13°C° 0 mm 4 mps 755 mmHg 47%
    16:00 +12°C° 0 mm 3 mps 754 mmHg 50%
    17:00 +13°C° 0 mm 2 mps 754 mmHg 54%
    18:00 +10°C° 0 mm 2 mps 754 mmHg 57%
    19:00 +9°C° 0 mm 2 mps 754 mmHg 60%
    20:00 +7°C° 0 mm 3 mps 754 mmHg 63%
    21:00 +7°C° 0 mm 3 mps 753 mmHg 64%
    22:00 +5°C° 0 mm 3 mps 753 mmHg 65%
    23:00 +5°C° 0 mm 3 mps 753 mmHg 65%

    1 October, Monday

    Time Temperature Precipitation Wind Pressure Humidity
    00:00 +5°C° 0 mm 3 mps 753 mmHg 66%
    01:00 +4°C° 0 mm 3 mps 752 mmHg 67%
    02:00 +5°C° 0 mm 2 mps 752 mmHg 68%
    03:00 +4°C° 0 mm 3 mps 752 mmHg 69%
    04:00 +3°C° 0 mm 3 mps 751 mmHg 71%
    05:00 +3°C° 0 mm 3 mps 751 mmHg 73%
    06:00 +4°C° 0 mm 3 mps 750 mmHg 71%
    07:00 +4°C° 0 mm 3 mps 750 mmHg 70%
    08:00 +5°C° 0 mm 3 mps 750 mmHg 68%
    09:00 +7°C° 0 mm 4 mps 749 mmHg 64%
    10:00 +10°C° 0 mm 4 mps 749 mmHg 60%
    11:00 +12°C° 0 mm 5 mps 749 mmHg 56%
    12:00 +13°C° 0 mm 5 mps 748 mmHg 55%
    13:00 +13°C° 0 mm 5 mps 747 mmHg 54%
    14:00 +14°C° 0 mm 5 mps 747 mmHg 53%
    15:00 +14°C° 0 mm 4 mps 746 mmHg 56%
    16:00 +13°C° 0 mm 3 mps 746 mmHg 60%
    17:00 +13°C° 0 mm 3 mps 745 mmHg 63%
    18:00 +12°C° 0 mm 3 mps 745 mmHg 67%
    19:00 +11°C° 0 mm 3 mps 745 mmHg 71%
    20:00 +10°C° 0 mm 2 mps 745 mmHg 76%
    21:00 +10°C° 0 mm 3 mps 745 mmHg 77%
    22:00 +10°C° 0 mm 3 mps 745 mmHg 78%
    23:00 +10°C° 0 mm 3 mps 745 mmHg 79%
    Show more